| time (UTC) | temp F | wind direction | speed MPH | gust MPH | rain 1hr in | rain 24hr in | rain mn in | humidity % | barometer mb |
| 20260902000040 | 73 | 296 | 0.0 | 10.0 | 0.00 | 0.00 | 0.00 | 51 | 1015.5 |
| 20260901234506 | 74 | 281 | 4.0 | 9.0 | 0.00 | 0.00 | 0.00 | 48 | 1015.6 |
| 20260901233052 | 73 | 189 | 0.0 | 12.0 | 0.00 | 0.00 | 0.00 | 50 | 1015.6 |
| 20260901231527 | 73 | 69 | 4.0 | 10.0 | 0.00 | 0.00 | 0.00 | 50 | 1015.7 |
| 20260901230046 | 73 | 37 | 4.0 | 12.0 | 0.00 | 0.00 | 0.00 | 47 | 1015.8 |
| 20260901224510 | 75 | 101 | 2.0 | 11.0 | 0.00 | 0.00 | 0.00 | 45 | 1015.8 |
| 20260901223059 | 74 | 316 | 1.0 | 7.0 | 0.00 | 0.00 | 0.00 | 47 | 1015.8 |
| 20260901221522 | 73 | 120 | 4.0 | 11.0 | 0.00 | 0.00 | 0.00 | 47 | 1015.9 |
| 20260901220106 | 74 | 138 | 0.0 | 15.0 | 0.00 | 0.00 | 0.00 | 48 | 1016.0 |
| 20260901214515 | 74 | 62 | 1.0 | 8.0 | 0.00 | 0.00 | 0.00 | 48 | 1016.2 |
| 20260901213107 | 74 | 186 | 2.0 | 8.0 | 0.00 | 0.00 | 0.00 | 47 | 1016.3 |
| 20260901211540 | 73 | 96 | 3.0 | 12.0 | 0.00 | 0.00 | 0.00 | 48 | 1016.1 |
| 20260901204542 | 73 | 109 | 0.0 | 8.0 | 0.00 | 0.00 | 0.00 | 47 | 1016.0 |
| 20260901203024 | 71 | 76 | 3.0 | 10.0 | 0.00 | 0.00 | 0.00 | 52 | 1016.1 |
| 20260901201602 | 70 | 28 | 6.0 | 12.0 | 0.00 | 0.00 | 0.00 | 52 | 1016.5 |
| 20260901200041 | 71 | 79 | 6.0 | 13.0 | 0.00 | 0.00 | 0.00 | 49 | 1016.6 |
| 20260901194607 | 72 | 251 | 0.0 | 7.0 | 0.00 | 0.00 | 0.00 | 49 | 1016.6 |
| 20260901193028 | 71 | 43 | 2.0 | 12.0 | 0.00 | 0.00 | 0.00 | 51 | 1016.6 |
| 20260901191555 | 70 | 133 | 6.0 | 13.0 | 0.00 | 0.00 | 0.00 | 52 | 1016.8 |
| 20260901190012 | 70 | 129 | 4.0 | 10.0 | 0.00 | 0.00 | 0.00 | 54 | 1016.8 |
| 20260901184544 | 70 | 230 | 0.0 | 5.0 | 0.00 | 0.00 | 0.00 | 54 | 1016.8 |
| 20260901183050 | 69 | 157 | 0.0 | 6.0 | 0.00 | 0.00 | 0.00 | 56 | 1016.7 |
| 20260901181518 | 68 | 38 | 1.0 | 8.0 | 0.00 | 0.00 | 0.00 | 58 | 1016.7 |
| 20260901180049 | 67 | 245 | 2.0 | 10.0 | 0.00 | 0.00 | 0.00 | 60 | 1016.6 |
| 20260901174513 | 66 | 126 | 3.0 | 10.0 | 0.00 | 0.00 | 0.00 | 62 | 1016.5 |
| 20260901173102 | 66 | 57 | 2.0 | 8.0 | 0.00 | 0.00 | 0.00 | 64 | 1016.5 |
| 20260901171542 | 65 | 309 | 1.0 | 9.0 | 0.00 | 0.00 | 0.00 | 65 | 1016.5 |
| 20260901170016 | 65 | 351 | 1.0 | 8.0 | 0.00 | 0.00 | 0.00 | 66 | 1016.4 |
| 20260901164552 | 64 | 64 | 1.0 | 5.0 | 0.00 | 0.00 | 0.00 | 68 | 1016.2 |
| 20260901163016 | 64 | 76 | 3.0 | 9.0 | 0.00 | 0.00 | 0.00 | 71 | 1016.2 |
| 20260901161607 | 63 | 112 | 2.0 | 7.0 | 0.00 | 0.00 | 0.00 | 72 | 1016.2 |
| 20260901160031 | 63 | 79 | 1.0 | 8.0 | 0.00 | 0.00 | 0.00 | 74 | 1016.0 |
| 20260901154609 | 62 | 5 | 0.0 | 9.0 | 0.00 | 0.00 | 0.00 | 75 | 1015.8 |
| 20260901153048 | 62 | 86 | 0.0 | 8.0 | 0.00 | 0.00 | 0.00 | 77 | 1015.8 |
| 20260901151512 | 61 | 77 | 0.0 | 8.0 | 0.00 | 0.00 | 0.00 | 78 | 1015.6 |
| 20260901150041 | 61 | 92 | 2.0 | 6.0 | 0.00 | 0.00 | 0.00 | 78 | 1015.6 |
| 20260901144513 | 61 | 98 | 0.0 | 2.0 | 0.00 | 0.00 | 0.00 | 78 | 1015.4 |
| 20260901143011 | 61 | 99 | 0.0 | 0.0 | 0.00 | 0.00 | 0.00 | 77 | 1015.1 |
| 20260901141545 | 61 | 99 | 0.0 | 7.0 | 0.00 | 0.00 | 0.00 | 77 | 1015.0 |
| 20260901140113 | 61 | 102 | 0.0 | 0.0 | 0.00 | 0.00 | 0.00 | 78 | 1014.7 |
| 20260901134602 | 60 | 102 | 0.0 | 0.0 | 0.00 | 0.00 | 0.00 | 78 | 1014.8 |
| 20260901133021 | 61 | 102 | 0.0 | 0.0 | 0.00 | 0.00 | 0.00 | 78 | 1014.6 |
| 20260901131601 | 61 | 102 | 0.0 | 0.0 | 0.00 | 0.00 | 0.00 | 78 | 1014.4 |
| 20260901130030 | 61 | 102 | 0.0 | 6.0 | 0.00 | 0.00 | 0.00 | 78 | 1014.4 |
| 20260901124528 | 61 | 102 | 0.0 | 5.0 | 0.00 | 0.00 | 0.00 | 78 | 1014.3 |
| 20260901123012 | 60 | 182 | 0.0 | 8.0 | 0.00 | 0.00 | 0.00 | 78 | 1014.2 |
| 20260901121546 | 60 | 109 | 0.0 | 0.0 | 0.00 | 0.00 | 0.00 | 78 | 1014.1 |
| 20260901120010 | 61 | 104 | 0.0 | 0.0 | 0.00 | 0.00 | 0.00 | 77 | 1014.0 |
| 20260901114622 | 61 | 105 | 0.0 | 6.0 | 0.00 | 0.00 | 0.00 | 77 | 1014.1 |
| 20260901113109 | 61 | 105 | 0.0 | 4.0 | 0.00 | 0.00 | 0.00 | 77 | 1014.2 |
| 20260901111528 | 61 | 102 | 0.0 | 7.0 | 0.00 | 0.00 | 0.00 | 76 | 1014.3 |
| 20260901110105 | 61 | 71 | 0.0 | 9.0 | 0.00 | 0.00 | 0.00 | 76 | 1014.3 |
| 20260901104535 | 61 | 91 | 2.0 | 8.0 | 0.00 | 0.00 | 0.00 | 75 | 1014.1 |
| 20260901103001 | 61 | 103 | 0.0 | 5.0 | 0.00 | 0.00 | 0.00 | 75 | 1014.0 |
| 20260901101535 | 61 | 121 | 0.0 | 5.0 | 0.00 | 0.00 | 0.00 | 75 | 1014.0 |
| 20260901100105 | 61 | 70 | 0.0 | 0.0 | 0.00 | 0.00 | 0.00 | 75 | 1014.0 |
| 20260901094539 | 61 | 70 | 0.0 | 5.0 | 0.00 | 0.00 | 0.00 | 75 | 1014.0 |
| 20260901093006 | 61 | 144 | 0.0 | 0.0 | 0.00 | 0.00 | 0.00 | 75 | 1014.2 |
| 20260901091530 | 61 | 153 | 0.0 | 0.0 | 0.00 | 0.00 | 0.00 | 75 | 1014.2 |
| 20260901090007 | 61 | 108 | 0.0 | 0.0 | 0.00 | 0.00 | 0.00 | 75 | 1014.2 |
| 20260901084543 | 60 | 99 | 0.0 | 7.0 | 0.00 | 0.00 | 0.00 | 75 | 1014.1 |
| 20260901083007 | 60 | 58 | 0.0 | 4.0 | 0.00 | 0.00 | 0.00 | 74 | 1014.0 |
| 20260901081551 | 60 | 86 | 1.0 | 6.0 | 0.00 | 0.00 | 0.00 | 74 | 1014.1 |
| 20260901080025 | 60 | 99 | 0.0 | 4.0 | 0.00 | 0.00 | 0.00 | 74 | 1013.9 |
| 20260901074547 | 60 | 69 | 0.0 | 9.0 | 0.00 | 0.00 | 0.00 | 74 | 1013.9 |
| 20260901073105 | 60 | 14 | 4.0 | 12.0 | 0.00 | 0.00 | 0.00 | 74 | 1013.9 |
| 20260901071524 | 60 | 78 | 0.0 | 11.0 | 0.00 | 0.00 | 0.00 | 73 | 1014.0 |
| 20260901070010 | 60 | 52 | 1.0 | 10.0 | 0.00 | 0.00 | 0.00 | 73 | 1014.0 |
| 20260901064556 | 60 | 83 | 0.0 | 5.0 | 0.00 | 0.00 | 0.00 | 74 | 1014.0 |
| 20260901063027 | 60 | 76 | 2.0 | 7.0 | 0.00 | 0.00 | 0.00 | 74 | 1014.0 |
| 20260901061602 | 60 | 82 | 4.0 | 11.0 | 0.00 | 0.00 | 0.00 | 74 | 1014.2 |
| 20260901060042 | 60 | 121 | 2.0 | 11.0 | 0.00 | 0.00 | 0.00 | 74 | 1014.3 |
| 20260901054505 | 60 | 88 | 0.0 | 10.0 | 0.00 | 0.00 | 0.00 | 74 | 1014.3 |
| 20260901053057 | 60 | 332 | 0.0 | 8.0 | 0.00 | 0.00 | 0.00 | 74 | 1014.1 |
| 20260901051514 | 60 | 28 | 0.0 | 7.0 | 0.00 | 0.00 | 0.00 | 74 | 1014.1 |
| 20260901050053 | 60 | 96 | 0.0 | 8.0 | 0.00 | 0.00 | 0.00 | 74 | 1014.0 |
| 20260901044541 | 60 | 75 | 2.0 | 9.0 | 0.00 | 0.00 | 0.00 | 74 | 1014.0 |
| 20260901043002 | 60 | 50 | 2.0 | 16.0 | 0.00 | 0.00 | 0.00 | 74 | 1014.0 |
| 20260901041546 | 60 | 83 | 2.0 | 11.0 | 0.00 | 0.00 | 0.00 | 74 | 1013.9 |
| 20260901040006 | 60 | 113 | 3.0 | 11.0 | 0.00 | 0.00 | 0.00 | 74 | 1013.7 |
| 20260901034558 | 60 | 107 | 1.0 | 11.0 | 0.00 | 0.00 | 0.00 | 74 | 1013.6 |
| 20260901033056 | 60 | 148 | 0.0 | 9.0 | 0.00 | 0.00 | 0.00 | 74 | 1013.4 |
| 20260901031510 | 61 | 96 | 1.0 | 11.0 | 0.00 | 0.00 | 0.00 | 74 | 1013.3 |
| 20260901030103 | 61 | 85 | 0.0 | 11.0 | 0.00 | 0.00 | 0.00 | 74 | 1013.2 |
| 20260901024523 | 61 | 103 | 5.0 | 17.0 | 0.00 | 0.00 | 0.00 | 73 | 1013.2 |
| 20260901023004 | 61 | 76 | 2.0 | 10.0 | 0.00 | 0.00 | 0.00 | 73 | 1013.1 |
| 20260901021600 | 62 | 122 | 0.0 | 5.0 | 0.00 | 0.00 | 0.00 | 72 | 1013.1 |
| 20260901020016 | 62 | 95 | 2.0 | 10.0 | 0.00 | 0.00 | 0.00 | 72 | 1013.0 |
| 20260901014546 | 62 | 88 | 3.0 | 15.0 | 0.00 | 0.00 | 0.00 | 72 | 1013.2 |
| 20260901013009 | 63 | 95 | 1.0 | 13.0 | 0.00 | 0.00 | 0.00 | 71 | 1013.3 |
| 20260901011608 | 64 | 96 | 3.0 | 14.0 | 0.00 | 0.00 | 0.00 | 70 | 1013.1 |
| 20260901010015 | 64 | 82 | 1.0 | 11.0 | 0.00 | 0.00 | 0.00 | 70 | 1013.1 |
| 20260901004540 | 64 | 92 | 2.0 | 8.0 | 0.00 | 0.00 | 0.00 | 70 | 1013.2 |
| 20260901003035 | 64 | 83 | 1.0 | 10.0 | 0.00 | 0.00 | 0.00 | 70 | 1013.1 |
| 20260901001534 | 64 | 67 | 1.0 | 9.0 | 0.00 | 0.00 | 0.00 | 70 | 1013.1 |